Weather History for KENV - April, 2014

Change the Weather History Date:

Friday, April 11, 2014

  Actual Average Record
Temperature  
Mean Temperature 60 °F -  
Max Temperature 75 °F 59 °F 77 °F (1934)
Min Temperature 44 °F 40 °F 28 °F (2007)
Degree Days  
Heating Degree Days 6    
Growing Degree Days 10 (Base 50)    
Moisture  
Dew Point 28 °F    
Average Humidity 31    
Maximum Humidity 53    
Minimum Humidity 15    
Precipitation  
Precipitation 0.00 in - - ()
Sea Level Pressure  
Sea Level Pressure 29.95 in    
Wind  
Wind Speed 5 mph (ESE)    
Max Wind Speed 14 mph    
Max Gust Speed 20 mph    
Visibility 10 miles    
Events      
Averages and records for this station are not official NWS values.
T = Trace of Precipitation, MM = Missing Value Source: NWS Daily Summary

Daily Weather History Graph

Daily Weather History Graph

Search for Another Location

Airport or City:

Trip Planner

Search our weather history database for the weather conditions in past years. The results will help you decide how hot, cold, wet, or windy it might be!

Date:

Astronomy

Apr. 11, 2014 Rise Set
Actual Time 7:03 AM MDT 8:11 PM MDT
Civil Twilight 6:35 AM MDT 8:39 PM MDT
Nautical Twilight 6:01 AM MDT 9:13 PM MDT
Astronomical Twilight 5:26 AM MDT 9:48 PM MDT
Moon 4:54 PM MDT (4/11) 5:01 AM MDT (4/11)
Length of Visible Light 14h 04m
Length of Day
13h 08m
Waxing Gibbous, 87% of the Moon is Illuminated
Apr 11
Waxing Gibbous
Apr 15
Full
Apr 22
Last Quarter
Apr 29
New
May 6
First Quarter

Hourly Weather History & Observations

Time (MDT) Temp. Windchill Dew Point Humidity Pressure Visibility Wind Dir Wind Speed Gust Speed Precip Events Conditions
12:15 AM 59.0 °F - 30.2 °F 34% 30.01 in 10.0 mi ENE 4.6 mph - N/A   Clear
12:35 AM 60.8 °F - 30.2 °F 31% 30.02 in 10.0 mi NNE 8.1 mph - N/A   Clear
12:55 AM 60.8 °F - 30.2 °F 31% 30.02 in 10.0 mi SSW 6.9 mph - N/A   Clear
1:15 AM 59.0 °F - 30.2 °F 34% 30.03 in 10.0 mi SW 5.8 mph - N/A   Clear
1:35 AM 59.0 °F - 30.2 °F 34% 30.04 in 10.0 mi SW 8.1 mph - N/A   Clear
1:55 AM 55.4 °F - 28.4 °F 36% 30.03 in 10.0 mi WSW 6.9 mph - N/A   Clear
2:15 AM 55.4 °F - 28.4 °F 36% 30.03 in 10.0 mi WNW 6.9 mph - N/A   Clear
2:35 AM 55.4 °F - 28.4 °F 36% 30.03 in 10.0 mi West 6.9 mph - N/A   Clear
2:55 AM 53.6 °F - 28.4 °F 38% 30.03 in 10.0 mi SE 4.6 mph - N/A   Clear
3:15 AM 53.6 °F - 28.4 °F 38% 30.03 in 10.0 mi Calm Calm - N/A   Clear
3:35 AM 48.2 °F - 28.4 °F 46% 30.03 in 10.0 mi ENE 3.5 mph - N/A   Clear
3:55 AM 51.8 °F - 28.4 °F 41% 30.02 in 10.0 mi Calm Calm - N/A   Clear
4:15 AM 50.0 °F - 28.4 °F 43% 30.02 in 10.0 mi Calm Calm - N/A   Clear
4:35 AM 48.2 °F - 28.4 °F 46% 30.02 in 10.0 mi SE 3.5 mph - N/A   Clear
4:55 AM 46.4 °F 44.3 °F 30.2 °F 53% 30.02 in 10.0 mi NE 4.6 mph - N/A   Clear
5:15 AM 46.4 °F 44.3 °F 28.4 °F 50% 30.02 in 10.0 mi SE 4.6 mph - N/A   Clear
5:35 AM 44.6 °F - 28.4 °F 53% 30.02 in 10.0 mi Calm Calm - N/A   Clear
5:55 AM 46.4 °F - 28.4 °F 50% 30.02 in 10.0 mi Calm Calm - N/A   Clear
6:15 AM 46.4 °F - 28.4 °F 50% 30.02 in 10.0 mi Calm Calm - N/A   Clear
6:35 AM 48.2 °F - 28.4 °F 46% 30.03 in 10.0 mi East 3.5 mph - N/A   Clear
6:55 AM 48.2 °F - 28.4 °F 46% 30.02 in 10.0 mi NNE 3.5 mph - N/A   Clear
7:15 AM 44.6 °F 42.2 °F 28.4 °F 53% 30.02 in 10.0 mi NNE 4.6 mph - N/A   Clear
7:35 AM 46.4 °F - 28.4 °F 50% 30.02 in 10.0 mi Calm Calm - N/A   Clear
7:55 AM 46.4 °F 45.2 °F 28.4 °F 50% 30.02 in 10.0 mi South 3.5 mph - N/A   Clear
8:15 AM 48.2 °F - 30.2 °F 50% 30.02 in 10.0 mi Calm Calm - N/A   Clear
8:35 AM 50.0 °F - 30.2 °F 47% 30.03 in 10.0 mi Calm Calm - N/A   Clear
8:55 AM 51.8 °F - 32.0 °F 47% 30.03 in 10.0 mi NNE 3.5 mph - N/A   Clear
9:15 AM 53.6 °F - 33.8 °F 47% 30.02 in 10.0 mi NE 6.9 mph - N/A   Clear
9:35 AM 55.4 °F - 33.8 °F 44% 30.02 in 10.0 mi ENE 8.1 mph - N/A   Clear
9:55 AM 55.4 °F - 33.8 °F 44% 30.02 in 10.0 mi East 8.1 mph - N/A   Clear
10:15 AM 57.2 °F - 33.8 °F 41% 30.03 in 10.0 mi East 5.8 mph - N/A   Clear
10:35 AM 57.2 °F - 32.0 °F 38% 30.03 in 10.0 mi East 3.5 mph - N/A   Clear
10:55 AM 60.8 °F - 32.0 °F 34% 30.03 in 10.0 mi ESE 3.5 mph - N/A   Clear
11:15 AM 60.8 °F - 33.8 °F 36% 30.02 in 10.0 mi East 5.8 mph - N/A   Clear
11:35 AM 60.8 °F - 33.8 °F 36% 30.02 in 10.0 mi SE 3.5 mph - N/A   Clear
11:55 AM 62.6 °F - 28.4 °F 27% 30.01 in 10.0 mi ESE 3.5 mph - N/A   Clear
12:15 PM 64.4 °F - 28.4 °F 26% 30.01 in 10.0 mi ESE 3.5 mph - N/A   Clear
12:35 PM 64.4 °F - 28.4 °F 26% 30.00 in 10.0 mi Calm Calm - N/A   Clear
12:55 PM 66.2 °F - 30.2 °F 26% 29.98 in 10.0 mi East 3.5 mph - N/A   Clear
1:15 PM 66.2 °F - 30.2 °F 26% 29.97 in 10.0 mi East 5.8 mph - N/A   Clear
1:35 PM 68.0 °F - 30.2 °F 24% 29.96 in 10.0 mi East 4.6 mph - N/A   Clear
1:55 PM 69.8 °F - 30.2 °F 23% 29.96 in 10.0 mi SE 5.8 mph - N/A   Clear
2:15 PM 69.8 °F - 30.2 °F 23% 29.94 in 10.0 mi East 5.8 mph - N/A   Clear
2:35 PM 71.6 °F - 30.2 °F 22% 29.93 in 10.0 mi ESE 6.9 mph - N/A   Clear
2:55 PM 73.4 °F - 28.4 °F 19% 29.92 in 10.0 mi ESE 10.4 mph - N/A   Clear
3:15 PM 73.4 °F - 28.4 °F 19% 29.91 in 10.0 mi ESE 8.1 mph - N/A   Clear
3:35 PM 73.4 °F - 26.6 °F 18% 29.90 in 10.0 mi SE 8.1 mph - N/A   Clear
3:55 PM 73.4 °F - 26.6 °F 18% 29.88 in 10.0 mi SE 9.2 mph - N/A   Clear
4:15 PM 73.4 °F - 26.6 °F 18% 29.87 in 10.0 mi SE 9.2 mph - N/A   Clear
4:35 PM 75.2 °F - 26.6 °F 17% 29.87 in 10.0 mi ESE 6.9 mph - N/A   Clear
4:55 PM 75.2 °F - 26.6 °F 17% 29.86 in 10.0 mi SE 8.1 mph - N/A   Clear
5:15 PM 75.2 °F - 26.6 °F 17% 29.85 in 10.0 mi ESE 8.1 mph - N/A   Clear
5:35 PM 75.2 °F - 26.6 °F 17% 29.85 in 10.0 mi ESE 10.4 mph - N/A   Clear
5:55 PM 75.2 °F - 24.8 °F 15% 29.84 in 10.0 mi SE 6.9 mph - N/A   Clear
6:15 PM 73.4 °F - 24.8 °F 16% 29.84 in 10.0 mi SSE 9.2 mph - N/A   Clear
6:35 PM 75.2 °F - 24.8 °F 15% 29.84 in 10.0 mi ESE 9.2 mph - N/A   Clear
6:55 PM 73.4 °F - 24.8 °F 16% 29.83 in 10.0 mi South 9.2 mph - N/A   Clear
7:15 PM 73.4 °F - 24.8 °F 16% 29.83 in 10.0 mi South 10.4 mph - N/A   Clear
7:35 PM 71.6 °F - 24.8 °F 17% 29.82 in 10.0 mi South 8.1 mph - N/A   Clear
7:55 PM 71.6 °F - 24.8 °F 17% 29.82 in 10.0 mi SSE 5.8 mph - N/A   Clear
8:15 PM 69.8 °F - 24.8 °F 18% 29.82 in 10.0 mi South 3.5 mph - N/A   Clear
8:35 PM 69.8 °F - 24.8 °F 18% 29.82 in 10.0 mi SW 3.5 mph - N/A   Clear
8:55 PM 66.2 °F - 24.8 °F 21% 29.82 in 10.0 mi West 6.9 mph - N/A   Clear
9:15 PM 62.6 °F - 24.8 °F 24% 29.82 in 10.0 mi WNW 8.1 mph - N/A   Clear
9:35 PM 64.4 °F - 24.8 °F 22% 29.82 in 10.0 mi WNW 5.8 mph - N/A   Clear
9:55 PM 66.2 °F - 24.8 °F 21% 29.82 in 10.0 mi WSW 4.6 mph - N/A   Clear
10:15 PM 60.8 °F - 26.6 °F 27% 29.82 in 10.0 mi WSW 5.8 mph - N/A   Clear
10:35 PM 62.6 °F - 24.8 °F 24% 29.83 in 10.0 mi NNE 9.2 mph - N/A   Clear
10:55 PM 64.4 °F - 30.2 °F 28% 29.83 in 10.0 mi NNE 12.7 mph - N/A   Clear
11:15 PM 64.4 °F - 30.2 °F 28% 29.82 in 10.0 mi NNE 13.8 mph 19.6 mph N/A   Clear
11:35 PM 64.4 °F - 28.4 °F 26% 29.82 in 10.0 mi North 13.8 mph 19.6 mph N/A   Clear
11:55 PM 64.4 °F - 28.4 °F 26% 29.82 in 10.0 mi NW 5.8 mph 16.1 mph N/A   Clear